Regional Weather Roundup
Issued by NWS New Orleans/Baton Rouge, LA

Home | Current Version | Previous Version | Text Only | Print | Product List | Glossary On
Versions: 1 2 3 4 5 6 7 8 9 10 11 12 13 14 15 16 17 18 19 20 21 22 23 24 25 26 27 28 29 30 31 32 33 34 35 36 37 38 39 40 41 42 43 44 45 46 47 48 49 50
479
ASUS44 KLIX 201501
RWRLIX
NEW ORLEANS REGIONAL WEATHER ROUNDUP
NATIONAL WEATHER SERVICE NEW ORLEANS LA
1000 AM CDT MON OCT 20 2014

NOTE: "FAIR" INDICATES FEW OR NO CLOUDS BELOW 12,000 FEET WITH NO
      SIGNIFICANT WEATHER AND/OR OBSTRUCTIONS TO VISIBILITY.
      SKY/WX - SKY CONDITION AND SIGNIFICANT WEATHER.
      TMP - AIR TEMPERATURE.     DP    - DEWPOINT TEMPERATURE.
      RH  - RELATIVE HUMIDITY.   PRES  - PRESSURE.
      HI  - HEAT INDEX.          WCI   - WIND CHILL INDEX.

*  THESE STATIONS ARE NOT NWS OR FAA STATIONS AND ARE NOT UNDER
   NWS QUALITY CONTROL.

LAZ038-040-048-061>063-065>067-069-201600-
SOUTHEAST LOUISIANA

CITY           SKY/WX    TMP DP  RH WIND       PRES   REMARKS
N.O. AUDUBON     N/A     75  58  54 MISG        N/A
N.O. INTL ARPT MOSUNNY   72  57  59 NE12      30.07R
N.O. LAKEFRONT SUNNY     71  56  58 NE9       30.08R
N.O. DOWNTOWN*   N/A     72  48  43 NE5       30.08R
SLIDELL        SUNNY     67  54  63 N5        30.07S
BATON ROUGE    MOSUNNY   61  52  72 NE5       30.08S
BOOTHVILLE     SUNNY     76  61  59 E6        30.06R
BELLE CHASSE   MOSUNNY   73  57  57 NE6       30.07R
BOGALUSA*        N/A     65  53  64 CALM      30.10S
NEW ROADS*       N/A     65  53  66 CALM      30.09S
GONZALES*        N/A     67  58  70 CALM      30.07S
HAMMOND*       NOT AVBL
HOUMA*         MOSUNNY   72  63  73 NE9       30.05F
PORT FOURCHON* SUNNY     75  66  73 NE8G16    30.08S

$$

MSZ070-080>082-201600-
SOUTHERN MISSISSIPPI

CITY           SKY/WX    TMP DP  RH WIND       PRES   REMARKS
MCCOMB         SUNNY     65  51  60 CALM      30.09S
GULFPORT       SUNNY     68  52  56 N6        30.07S
BILOXI         SUNNY     66  53  61 N6        30.08R
PASCAGOULA     SUNNY     68  54  60 CALM      30.08R
STENNIS ARPT*  SUNNY     66  50  55 CALM      30.08S

$$

COASTAL OBSERVATIONS
LAKE AND NEARSHORE STATIONS

STATION/POSITION TIME  TEMP    WIND        PRES    WAVE
                       AIR SEA DIR/SP/G            HT/PER
                 (UTC) (F)     (DEG/KT/KT) (MB)    (FT/S)
PASCAGOULA       1400   65      20/  4/  6 1017.9
WAVELAND YACHT   1400   63      40/  4/  6 1017.6
GRAND ISLE       1400   72 78   50/  7/  9 1018.2
SOUTHWEST PASS   1400   76 84              1017.8
NEW CANAL        1400   69 71   60/  9/ 10 1018.5
SHELL BEACH      1400   70 69   50/ 10/ 12 1017.8

OFFSHORE STATIONS

STATION/POSITION TIME  TEMP    WIND        PRES    WAVE
                       AIR SEA DIR/SP/G            HT/PER
                 (UTC) (F)     (DEG/KT/KT) (MB)    (FT/S)
64 S DAUPHIN ISL 1405   76 80  110/  6/ 10 1018.1    2/ 6

$$




USA.gov is the U.S. government's official web portal to all federal, state and local government web resources and services.